Location: downtown San Diego
(32.7310°N, 117.1990°W)
Time: 17:33:17
(UTC-07:00)

Resurs 01 Rocket - Pass Details

Date: 19 May 2017
Orbit: 635 x 644 km, 98.2° (Epoch: 25 July)

Event Time Altitude Azimuth Distance (km) Brightness Sun altitude
Rises 20:26:50 0° 172° (S) 2,936 4.7 -8.8°
Reaches altitude 10° 20:29:02 10° 175° (S) 2,030 3.9 -9.2°
Maximum altitude 20:33:26 69° 258° (WSW) 688 2.0 -10.0°
Drops below altitude 10° 20:37:52 10° 342° (NNW) 2,039 5.0 -10.8°
Sets 20:40:06 0° 345° (NNW) 2,951 5.8 -11.2°
